Zurück zum Katalog

GRUS-3E

AktivWissenschaftSSO
NORAD 69898·PAYLOAD·🇺🇸 United States

Gestartet Jul 7, 2026 von Vandenberg Space Force Base

Loading…

Nächste Überflüge (nächste 24 Stunden)

TLE

AktuellSource: Space-Track

Epoche: Sep 13, 2026, 16:54 UTC

1 69898U 26156AF  26256.70453905  .00000564  00000-0  61804-4 0  9992
2 69898  97.7467 155.9979 0004000 283.9631  76.1142 14.91551267 10196

Verfolge GRUS-3E in Echtzeit mit AllMySat

Download on the App Store